Location: Newark
(35.7667°N, 5.8000°E)
Time: 07:14:49
(UTC+00:00)

Envisat - Visible Passes

Search period start: 19 November 2019 00:00
Search period end: 29 November 2019 00:00
Orbit: 764 x 766 km, 98.1° (Epoch: 18 November)

Date Brightness Start Highest point End Pass type
(mag) Time Alt. Az. Time Alt. Az. Time Alt. Az.
19 Nov 3.2 17:15:20 10° SE 17:20:12 48° ENE 17:25:04 10° N visible
19 Nov 5.8 18:56:17 10° SW 18:59:25 16° W 19:02:36 10° NW visible
20 Nov 5.9 05:27:54 10° NE 05:31:43 21° E 05:35:31 10° SE visible
20 Nov 4.4 18:17:43 10° SSW 18:22:25 38° W 18:27:09 10° NNW visible
21 Nov 2.9 17:40:32 10° SSE 17:45:36 89° ENE 17:50:43 10° NNW visible
22 Nov 3.5 17:04:19 10° SE 17:08:58 38° ENE 17:13:39 10° N visible
22 Nov 5.4 18:44:16 10° SW 18:48:04 21° W 18:51:53 10° NW visible
23 Nov 6.0 05:17:12 10° NE 05:20:21 16° E 05:23:29 10° SE visible
23 Nov 3.9 18:06:13 10° S 18:11:07 50° W 18:16:03 10° NNW visible
24 Nov 2.9 17:29:20 10° SSE 17:34:21 69° ENE 17:39:25 10° N visible
24 Nov 6.2 19:12:22 10° WSW 19:13:48 11° W 19:15:14 10° WNW visible
25 Nov 5.3 05:41:36 10° NE 05:46:02 30° E 05:50:27 10° SSE visible
25 Nov 3.8 16:53:26 10° SE 16:57:46 30° ENE 17:02:09 10° N visible
25 Nov 5.0 18:32:27 10° SSW 18:36:43 27° W 18:41:01 10° NW visible
26 Nov 6.3 05:06:53 10° ENE 05:08:58 12° E 05:11:03 10° ESE visible
26 Nov 3.4 17:54:48 10° S 17:59:49 65° W 18:04:53 10° NNW visible
27 Nov 3.1 17:18:12 10° SSE 17:23:07 53° ENE 17:28:03 10° N visible
27 Nov 5.9 18:59:36 10° SW 19:02:25 15° W 19:05:14 10° WNW visible
28 Nov 5.7 05:30:40 10° NE 05:34:42 23° E 05:38:41 10° SSE visible
28 Nov 4.6 18:20:47 10° SSW 18:25:23 35° W 18:30:01 10° NNW visible
